DW0148 Weather Reports


time (UTC)temp
C
wind
direction
speed
KPH
gust
KPH
rain 1hr
cm
rain 24hr
cm
rain mn
cm
humidity
%
barometer
mb
20260831153556 30 205 0.0 0.0 0.00 0.00 0.00 72 1019.6
20260831153043 30 201 0.0 0.0 0.00 0.00 0.00 71 1019.6
20260831152521 30 259 0.0 0.0 0.00 0.00 0.00 75 1019.6
20260831151959 30 334 0.0 0.0 0.00 0.00 0.00 73 1019.6
20260831151442 30 221 0.0 0.0 0.00 0.00 0.00 75 1019.6
20260831150856 29 236 0.0 0.0 0.00 0.00 0.00 74 1019.6
20260831150343 29 276 0.0 0.0 0.00 0.00 0.00 77 1019.6
20260831145839 29 250 0.0 0.0 0.00 0.00 0.00 76 1019.6
20260831145317 29 285 0.0 0.0 0.00 0.00 0.00 74 1019.6
20260831144800 29 244 0.0 0.0 0.00 0.00 0.00 75 1019.6
20260831144216 28 149 0.0 0.0 0.00 0.00 0.00 74 1019.6
20260831143706 28 92 0.0 0.0 0.00 0.00 0.00 79 1019.6
20260831143201 28 276 0.0 0.0 0.00 0.00 0.00 78 1019.6
20260831142659 28 242 0.0 0.0 0.00 0.00 0.00 77 1019.6
20260831142114 28 162 0.0 0.0 0.00 0.00 0.00 78 1019.6
20260831141601 28 243 0.0 0.0 0.00 0.00 0.00 78 1019.6
20260831141057 28 197 0.0 0.0 0.00 0.00 0.00 80 1019.3
20260831140555 28 103 0.0 0.0 0.00 0.00 0.00 80 1019.3
20260831140020 28 172 0.0 0.0 0.00 0.00 0.00 81 1019.6
20260831135517 27 136 0.0 0.0 0.00 0.00 0.00 83 1019.6
20260831135013 27 181 0.0 0.0 0.00 0.00 0.00 84 1019.3
20260831134437 26 181 0.0 0.0 0.00 0.00 0.00 87 1019.3
20260831133933 26 181 0.0 0.0 0.00 0.00 0.00 89 1019.3
20260831133427 26 75 0.0 0.0 0.00 0.00 0.00 88 1019.6
20260831132920 25 91 0.0 0.0 0.00 0.00 0.00 94 1019.6
20260831132412 24 90 0.0 0.0 0.00 0.00 0.00 96 1019.6
20260831131901 23 89 0.0 0.0 0.00 0.00 0.00 95 1019.6
20260831131254 23 79 0.0 0.0 0.00 0.00 0.00 95 1019.6
20260831130752 23 41 0.0 0.0 0.00 0.00 0.00 95 1019.6
20260831130247 23 72 0.0 0.0 0.00 0.00 0.00 95 1019.6
20260831125745 22 73 0.0 0.0 0.00 0.00 0.00 95 1019.6
20260831125238 22 72 0.0 0.0 0.00 0.00 0.00 95 1019.3
20260831124735 22 72 0.0 0.0 0.00 0.00 0.00 95 1019.3
20260831124232 22 72 0.0 0.0 0.00 0.00 0.00 95 1019.3
20260831123728 21 72 0.0 0.0 0.00 0.00 0.00 95 1019.3
20260831123224 21 72 0.0 0.0 0.00 0.00 0.00 95 1019.3
20260831122716 21 72 0.0 0.0 0.00 0.00 0.00 95 1019.3
20260831122138 21 72 0.0 0.0 0.00 0.00 0.00 95 1019.3
20260831121556 21 72 0.0 0.0 0.00 0.00 0.00 95 1019.3
20260831121055 21 72 0.0 0.0 0.00 0.00 0.00 95 1019.3
20260831120549 21 73 0.0 0.0 0.00 0.00 0.00 95 1019.3
20260831120035 21 73 0.0 0.0 0.00 0.00 0.00 95 1019.0
20260831115529 21 72 0.0 0.0 0.00 0.00 0.00 95 1019.0
20260831115025 21 72 0.0 0.0 0.00 0.00 0.00 95 1019.0
20260831114520 21 72 0.0 0.0 0.00 0.00 0.00 95 1019.0
20260831114005 21 73 0.0 0.0 0.00 0.00 0.00 95 1019.0
20260831113414 21 72 0.0 0.0 0.00 0.00 0.00 95 1018.6
20260831112841 20 72 0.0 0.0 0.00 0.00 0.00 95 1018.6
20260831112339 20 72 0.0 0.0 0.00 0.00 0.00 95 1018.6
20260831111838 20 73 0.0 0.0 0.00 0.00 0.00 95 1018.6
20260831111335 20 72 0.0 0.0 0.00 0.00 0.00 95 1018.6
20260831110832 20 72 0.0 0.0 0.00 0.00 0.00 95 1018.6
20260831110330 20 72 0.0 0.0 0.00 0.00 0.00 95 1018.6
20260831105829 20 72 0.0 0.0 0.00 0.00 0.00 95 1018.6
20260831105324 20 73 0.0 0.0 0.00 0.00 0.00 95 1018.6
20260831104822 20 72 0.0 0.0 0.00 0.00 0.00 95 1018.3
20260831104315 20 72 0.0 0.0 0.00 0.00 0.00 95 1018.3
20260831103758 20 73 0.0 0.0 0.00 0.00 0.00 95 1018.6
20260831103256 20 72 0.0 0.0 0.00 0.00 0.00 95 1018.6
20260831102753 20 72 0.0 0.0 0.00 0.00 0.00 95 1018.6
20260831102248 20 72 0.0 0.0 0.00 0.00 0.00 95 1018.3
20260831101715 20 73 0.0 0.0 0.00 0.00 0.00 95 1018.3
20260831101210 20 73 0.0 0.0 0.00 0.00 0.00 95 1018.3
20260831100629 20 72 0.0 0.0 0.00 0.00 0.00 95 1018.3
20260831100055 20 72 0.0 0.0 0.00 0.00 0.00 95 1018.3
20260831095544 21 72 0.0 0.0 0.00 0.00 0.00 95 1017.9
20260831095042 21 72 0.0 0.0 0.00 0.00 0.00 95 1018.3
20260831094538 21 72 0.0 0.0 0.00 0.00 0.00 95 1017.9
20260831093929 21 72 0.0 0.0 0.00 0.00 0.00 95 1017.9
20260831093426 21 72 0.0 0.0 0.00 0.00 0.00 95 1018.3
20260831092922 21 72 0.0 0.0 0.00 0.00 0.00 95 1017.9
20260831092346 21 72 0.0 0.0 0.00 0.00 0.00 95 1017.9
20260831091838 21 72 0.0 0.0 0.00 0.00 0.00 95 1017.9
20260831091335 21 72 0.0 0.0 0.00 0.00 0.00 95 1017.9
20260831090833 21 72 0.0 0.0 0.00 0.00 0.00 95 1017.9
20260831090331 21 72 0.0 0.0 0.00 0.00 0.00 95 1017.9
20260831085828 21 73 0.0 0.0 0.00 0.00 0.00 95 1017.9
20260831085244 21 73 0.0 0.0 0.00 0.00 0.00 95 1017.9
20260831084740 21 72 0.0 0.0 0.00 0.00 0.00 95 1017.9
20260831084238 21 72 0.0 0.0 0.00 0.00 0.00 95 1017.9
20260831083735 21 73 0.0 0.0 0.00 0.00 0.00 95 1017.9
20260831083232 21 72 0.0 0.0 0.00 0.00 0.00 95 1017.9
20260831082730 21 72 0.0 0.0 0.00 0.00 0.00 95 1017.9
20260831082224 21 72 0.0 0.0 0.00 0.00 0.00 95 1017.6
20260831081717 21 72 0.0 0.0 0.00 0.00 0.00 95 1017.9
20260831081205 21 72 0.0 0.0 0.00 0.00 0.00 95 1017.6
20260831080657 21 72 0.0 0.0 0.00 0.00 0.00 95 1017.6
20260831080155 21 72 0.0 0.0 0.00 0.00 0.00 95 1017.6
20260831075645 21 72 0.0 0.0 0.00 0.00 0.00 95 1017.6
20260831075142 21 72 0.0 0.0 0.00 0.00 0.00 95 1017.6
20260831074600 21 72 0.0 0.0 0.00 0.00 0.00 95 1017.6
20260831074017 21 72 0.0 0.0 0.00 0.00 0.00 95 1017.6
20260831073453 21 72 0.0 0.0 0.00 0.00 0.00 95 1017.6
20260831072951 21 72 0.0 0.0 0.00 0.00 0.00 95 1017.6
20260831072448 21 72 0.0 0.0 0.00 0.00 0.00 95 1017.6
20260831071913 21 72 0.0 0.0 0.00 0.00 0.00 95 1017.6
20260831071408 21 72 0.0 0.0 0.00 0.00 0.00 95 1017.9
20260831070831 21 72 0.0 0.0 0.00 0.00 0.00 95 1017.9
20260831070329 21 72 0.0 0.0 0.00 0.00 0.00 95 1017.9
20260831065827 21 72 0.0 0.0 0.00 0.00 0.00 95 1017.9
20260831065321 21 72 0.0 0.0 0.00 0.00 0.00 95 1017.9
20260831064744 21 72 0.0 0.0 0.00 0.00 0.00 96 1017.9
20260831064241 21 72 0.0 0.0 0.00 0.00 0.00 95 1017.9
20260831063739 21 72 0.0 0.0 0.00 0.00 0.00 95 1017.9
20260831063201 21 72 0.0 0.0 0.00 0.00 0.00 95 1017.9
20260831062658 21 72 0.0 0.0 0.00 0.00 0.00 95 1017.9
20260831062156 21 72 0.0 0.0 0.00 0.00 0.00 95 1017.9
20260831061653 21 72 0.0 0.0 0.00 0.00 0.00 95 1017.9
20260831061151 21 72 0.0 0.0 0.00 0.00 0.00 95 1018.3
20260831060649 21 72 0.0 0.0 0.00 0.00 0.00 95 1018.3
20260831060148 21 72 0.0 0.0 0.00 0.00 0.00 95 1017.9
20260831055645 21 72 0.0 0.0 0.00 0.00 0.00 95 1017.9
20260831055037 21 72 0.0 0.0 0.00 0.00 0.00 95 1017.9
20260831054534 21 73 0.0 0.0 0.00 0.00 0.00 95 1017.9
20260831054032 22 72 0.0 0.0 0.00 0.00 0.00 95 1017.9
20260831053530 22 73 0.0 0.0 0.00 0.00 0.00 95 1017.9
20260831052956 22 72 0.0 0.0 0.00 0.00 0.00 95 1017.9
20260831052454 22 72 0.0 0.0 0.00 0.00 0.00 95 1017.9
20260831051952 22 72 0.0 0.0 0.00 0.00 0.00 95 1017.9
20260831051417 22 72 0.0 0.0 0.00 0.00 0.00 95 1017.9
20260831050916 22 72 0.0 0.0 0.00 0.00 0.00 95 1017.9
20260831050412 22 73 0.0 0.0 0.00 0.00 0.00 95 1017.9
20260831045910 22 74 0.0 0.0 0.00 0.00 0.00 95 1017.9
20260831045408 22 72 0.0 0.0 0.00 0.00 0.00 95 1017.9
20260831044835 22 72 0.0 0.0 0.00 0.00 0.00 95 1017.9
20260831044332 22 73 0.0 0.0 0.00 0.00 0.00 95 1017.9
20260831043830 22 72 0.0 0.0 0.00 0.00 0.00 95 1017.9
20260831043256 22 73 0.0 0.0 0.00 0.00 0.00 95 1017.9
20260831042748 22 146 0.0 0.0 0.00 0.00 0.00 95 1017.6
20260831042247 22 146 0.0 0.0 0.00 0.00 0.00 95 1017.6
20260831041744 22 146 0.0 0.0 0.00 0.00 0.00 95 1017.6
20260831041241 22 147 0.0 0.0 0.00 0.00 0.00 95 1017.6
20260831040740 22 146 0.0 0.0 0.00 0.00 0.00 95 1017.9
20260831040236 22 146 0.0 0.0 0.00 0.00 0.00 95 1017.9
20260831035735 22 147 0.0 0.0 0.00 0.00 0.00 95 1017.9
20260831035233 22 146 0.0 0.0 0.00 0.00 0.00 95 1017.9
20260831034732 22 147 0.0 0.0 0.00 0.00 0.00 95 1017.9
20260831034156 22 146 0.0 0.0 0.00 0.00 0.00 95 1017.9
20260831033652 22 146 0.0 0.0 0.00 0.00 0.00 95 1017.9
20260831033149 22 147 0.0 0.0 0.00 0.00 0.00 95 1017.9
20260831032644 22 146 0.0 0.0 0.00 0.00 0.00 95 1017.9
20260831032143 22 147 0.0 0.0 0.00 0.00 0.00 95 1017.9
20260831031637 22 146 0.0 0.0 0.00 0.00 0.00 95 1017.9
20260831031135 22 146 0.0 0.0 0.00 0.00 0.00 95 1017.9
20260831030631 22 146 0.0 0.0 0.00 0.00 0.00 95 1017.9
20260831030057 22 146 0.0 0.0 0.00 0.00 0.00 95 1017.9
20260831025555 22 146 0.0 0.0 0.00 0.00 0.00 95 1017.6
20260831025053 22 146 0.0 0.0 0.00 0.00 0.00 95 1017.6
20260831024550 22 146 0.0 0.0 0.00 0.00 0.00 95 1017.6
20260831024014 22 146 0.0 0.0 0.00 0.00 0.00 94 1017.6
20260831023508 22 146 0.0 0.0 0.00 0.00 0.00 94 1017.6
20260831023005 23 146 0.0 0.0 0.00 0.00 0.00 94 1017.9
20260831022429 23 146 0.0 0.0 0.00 0.00 0.00 94 1017.9
20260831021927 23 146 0.0 0.0 0.00 0.00 0.00 94 1017.9
20260831021425 23 146 0.0 0.0 0.00 0.00 0.00 94 1017.6
20260831020922 22 147 0.0 0.0 0.00 0.00 0.00 95 1017.6
20260831020420 22 146 0.0 0.0 0.00 0.00 0.00 94 1017.6
20260831015918 22 146 0.0 0.0 0.00 0.00 0.00 94 1017.6
20260831015345 22 146 0.0 0.0 0.00 0.00 0.00 94 1017.6
20260831014842 22 146 0.0 0.0 0.00 0.00 0.00 94 1017.6
20260831014339 22 146 0.0 0.0 0.00 0.00 0.00 93 1017.6
20260831013837 23 146 0.0 0.0 0.00 0.00 0.00 93 1017.3
20260831013300 23 146 0.0 0.0 0.00 0.00 0.00 93 1017.3
20260831012759 23 146 0.0 0.0 0.00 0.00 0.00 93 1017.3
20260831012257 23 146 0.0 0.0 0.00 0.00 0.00 93 1017.3
20260831011722 23 147 0.0 0.0 0.00 0.00 0.00 92 1016.9
20260831011220 23 146 0.0 0.0 0.00 0.00 0.00 92 1016.9
20260831010719 23 146 0.0 0.0 0.00 0.00 0.00 92 1016.9
20260831010217 23 146 0.0 0.0 0.00 0.00 0.00 92 1016.9
20260831005715 23 146 0.0 0.0 0.00 0.00 0.00 92 1016.9
20260831005212 23 146 0.0 0.0 0.00 0.00 0.00 91 1016.9
20260831004708 23 147 0.0 0.0 0.00 0.00 0.00 91 1016.9
20260831004134 23 147 0.0 0.0 0.00 0.00 0.00 91 1016.6
20260831003631 24 146 0.0 0.0 0.00 0.00 0.00 91 1016.6
20260831003057 24 146 0.0 0.0 0.00 0.00 0.00 91 1016.6
20260831002553 24 146 0.0 0.0 0.00 0.00 0.00 91 1016.6
20260831002051 25 146 0.0 0.0 0.00 0.00 0.00 91 1016.3
20260831001549 25 146 0.0 0.0 0.00 0.00 0.00 91 1016.3
20260831001047 25 146 0.0 0.0 0.00 0.00 0.00 90 1016.3
20260831000545 25 146 0.0 0.0 0.00 0.00 0.00 90 1016.6
20260831000042 25 146 0.0 0.0 0.00 0.00 0.00 89 1016.6
20260830235436 26 146 0.0 0.0 0.00 0.00 0.00 89 1016.6
20260830234934 26 146 0.0 0.0 0.00 0.00 0.00 88 1016.6
20260830234433 26 146 0.0 0.0 0.00 0.00 0.00 88 1016.6
20260830233859 26 147 0.0 0.0 0.00 0.00 0.00 87 1016.6
20260830233351 26 146 0.0 0.0 0.00 0.00 0.00 86 1016.6
20260830232849 27 146 0.0 0.0 0.00 0.00 0.00 86 1016.6
20260830232345 27 147 0.0 0.0 0.00 0.00 0.00 85 1016.6
20260830231843 27 146 0.0 0.0 0.00 0.00 0.00 83 1016.6
20260830231342 27 146 0.0 0.0 0.00 0.00 0.00 83 1016.6
20260830230839 27 146 0.0 0.0 0.00 0.00 0.00 82 1016.6
20260830230330 28 146 0.0 0.0 0.00 0.00 0.00 80 1016.3
20260830225828 28 146 0.0 0.0 0.00 0.00 0.00 79 1016.6
20260830225326 28 147 0.0 0.0 0.00 0.00 0.00 79 1016.3
20260830224820 28 147 0.0 0.0 0.00 0.00 0.00 77 1016.3
20260830224318 28 146 0.0 0.0 0.00 0.00 0.00 76 1016.3
20260830223815 29 146 0.0 0.0 0.00 0.00 0.00 75 1016.3
20260830223306 29 146 0.0 0.0 0.00 0.00 0.00 73 1016.3
20260830222804 30 148 0.0 0.0 0.00 0.00 0.00 73 1016.3
20260830222259 30 146 0.0 0.0 0.00 0.00 0.00 72 1016.3
20260830221756 30 146 0.0 0.0 0.00 0.00 0.00 69 1016.3
20260830221253 30 146 0.0 0.0 0.00 0.00 0.00 68 1016.3
20260830220747 31 146 0.0 0.0 0.00 0.00 0.00 63 1016.3
20260830220244 31 146 0.0 0.0 0.00 0.00 0.00 61 1016.3
20260830215741 31 179 0.0 0.0 0.00 0.00 0.00 63 1016.3
20260830215239 31 221 0.0 0.0 0.00 0.00 0.00 63 1016.3
20260830214737 31 255 0.0 0.0 0.00 0.00 0.00 57 1016.3
20260830214123 31 255 0.0 0.0 0.00 0.00 0.00 64 1016.3
20260830213621 32 254 0.0 0.0 0.00 0.00 0.00 58 1016.3
20260830213048 32 242 0.0 0.0 0.00 0.00 0.00 60 1016.3
20260830212441 32 242 0.0 0.0 0.00 0.00 0.00 60 1016.3
20260830211938 32 139 0.0 0.0 0.00 0.00 0.00 61 1016.6
20260830211437 32 246 0.0 0.0 0.00 0.00 0.00 58 1016.6
20260830210901 32 148 0.0 0.0 0.00 0.00 0.00 61 1016.6
20260830210255 32 223 0.0 0.0 0.00 0.00 0.00 61 1016.6
20260830205722 32 224 0.0 0.0 0.00 0.00 0.00 60 1016.6
20260830205148 32 208 0.0 0.0 0.00 0.00 0.00 59 1016.6
20260830204644 32 249 0.0 0.0 0.00 0.00 0.00 62 1016.6
20260830204142 32 200 0.0 0.0 0.00 0.00 0.00 61 1016.6
20260830203637 32 191 0.0 0.0 0.00 0.00 0.00 61 1016.6
20260830203133 32 229 0.0 0.0 0.00 0.00 0.00 64 1016.6
20260830202631 32 228 0.0 0.0 0.00 0.00 0.00 64 1016.6